Location: Camp Crooked Creek
(37.9149°N, 85.6607°W)
Time: 11:59:44
(UTC-05:00)

Daily predictions for brighter satellites

Satellite Brightness Start Highest point End
(mag) Time Altitude Azimuth Time Altitude Azimuth Time Altitude Azimuth
Cosmos 1656 4.3 17:43:10 10° S 17:48:11 35° ESE 17:53:11 10° NE
COSMO-SKYMED 1 4.1 17:47:11 10° NE 17:50:07 17° E 17:53:01 10° SE
Cosmos 1666 3.0 17:46:39 10° N 17:50:14 43° E 17:53:48 10° SSE
SJ 16-02 2.1 17:48:18 10° SSE 17:52:14 34° E 17:56:14 10° NE
Cosmos 2279 Rocket 4.1 17:47:11 10° S 17:53:26 87° E 17:59:44 10° N
IDEFIX/ARIANE 42P 4.2 17:49:25 10° SSW 17:54:16 40° W 17:59:09 10° NNW
Cosmos 1975 Rocket 3.7 17:50:17 10° SSW 17:54:41 60° W 17:59:09 10° N
Cosmos 372 Rocket 4.4 17:51:27 10° S 17:56:20 42° ESE 18:01:12 10° NNE
SMAP 3.1 17:57:33 10° SSE 18:02:07 61° ENE 18:06:43 10° N
Cosmos 1975 3.5 17:59:24 10° NNW 18:03:24 62° W 18:07:23 10° S
Meteor 2-4 Rocket 3.8 18:01:10 10° S 18:06:27 54° E 18:11:40 10° NNE
NOSS 3-2 (A) 4.4 18:00:09 10° NNW 18:07:14 42° NE 18:14:54 10° ESE
CSL-04 Debris 4.1 18:02:50 10° SSE 18:08:12 77° ENE 18:13:36 10° N
DELTA 2 R/B (1) 3.6 18:09:20 10° W 18:14:54 74° N 18:20:00 13° E
BREEZE-M DEB (TANK) 2.7 18:12:32 10° NW 18:15:20 71° NE 18:23:58 10° ESE
ALOS 3.3 18:12:43 10° ESE 18:16:26 24° ENE 18:20:09 10° NNE
Meteor 1-13 Rocket 4.2 18:10:55 10° S 18:16:30 88° E 18:22:13 10° N
Cosmos 1025 Rocket 4.2 18:13:28 10° SE 18:16:49 23° E 18:19:58 11° NE
Cosmos 2369 3.7 18:11:48 10° SSW 18:17:27 77° ESE 18:23:10 10° NNE
Cosmos 2278 3.7 18:12:24 10° SSW 18:18:02 74° ESE 18:23:44 10° NNE
ATLAS 2AS CENTAUR R/B 3.8 18:11:53 10° SW 18:19:24 52° NW 18:27:18 10° NNE
ATLAS 3B R/B 2.5 18:14:56 10° NNW 18:21:35 76° ENE 18:28:04 10° SE
FENGYUN 3A 4.4 18:17:49 10° SE 18:22:25 30° ENE 18:27:02 10° N
Cosmos 1536 Rocket 3.5 18:18:33 10° S 18:22:54 80° E 18:27:15 10° N
METEOR-M 4.3 18:18:29 10° SE 18:23:37 50° ENE 18:28:46 10° N
CZ-4 R/B 1.2 18:21:05 10° SSE 18:24:56 78° ENE 18:28:53 10° N
CSL-04 Rocket 4.1 18:19:38 10° S 18:25:00 68° WSW 18:30:30 10° NNW
Hubble Space Telescope 3.2 18:22:58 10° SW 18:25:46 18° S 18:28:34 10° SSE
Meteor 1-28 Rocket 3.4 18:22:22 10° N 18:26:08 72° WNW 18:29:53 10° SSW
Cosmos 158 Rocket 3.8 18:22:49 10° NNW 18:27:54 79° ENE 18:32:49 10° SSE
Cosmos 2084 4.0 18:26:38 10° S 18:30:33 37° ESE 18:32:45 21° ENE
USA 215 3.3 18:24:35 10° SE 18:31:08 88° SW 18:37:42 10° NW
Meteor 1-15 Rocket 4.5 18:29:35 10° N 18:35:20 49° ENE 18:41:00 10° SSE
Cosmos 1697 Rocket 2.7 18:30:19 10° S 18:35:52 62° ESE 18:41:05 12° NNE
Cosmos 1743 4.4 18:32:54 10° NNW 18:36:29 36° W 18:40:04 10° SSW
EO 1 Del DPAF 3.6 18:33:38 14° NNE 18:36:39 43° E 18:40:17 10° S
Cosmos 1515 4.0 18:33:30 10° SSE 18:37:06 44° E 18:39:54 15° NNE
SKYMED 2 3.6 18:34:05 10° NNE 18:38:24 62° E 18:42:41 10° S
NOSS 3-4 (A) 3.5 18:34:36 10° SSW 18:40:44 67° ESE 18:45:48 16° NE
NOSS 3-4 (C) 3.5 18:34:42 10° SSW 18:40:50 66° ESE 18:45:51 17° NE
Okean 2 3.6 18:41:25 10° SSE 18:45:22 48° E 18:48:05 19° NNE
Abrixas rocket 4.5 18:45:21 10° NNW 18:46:58 13° N 18:47:23 13° N
Cosmos 2082 3.7 18:44:20 10° NNW 18:49:58 83° WSW 18:55:35 10° SSE
PSLV R/B 3.6 18:47:37 10° WNW 18:50:41 45° N 18:51:14 40° NNE
Landsat 4 4.0 18:50:22 10° N 18:54:10 66° WNW 18:57:55 10° SSW
ISS -2.0 18:51:49 10° WNW 18:54:48 33° SW 18:57:47 10° SSE
ERS-2 2.0 18:51:59 10° SSE 18:55:36 67° ENE 18:59:15 10° N
Cosmos 2266 Rocket 4.2 18:50:07 10° N 18:56:12 74° W 19:02:22 10° S
SPOT 3 Rocket 3.4 18:53:43 10° SSE 18:58:50 66° ENE 19:03:58 10° N
BREEZE-M DEB (TANK) 4.3 18:57:01 10° NW 19:00:12 43° NE 19:02:42 29° E
Cosmos 2227 Rocket 3.1 18:56:11 10° NNW 19:01:39 51° WSW 19:07:04 10° S
CENTAUR R/B 3.7 18:54:45 10° NNW 19:01:47 34° NE 19:04:35 28° E
NOSS 2-2 (E) 3.8 19:01:18 10° S 19:04:57 41° ESE 19:05:01 41° ESE
YAOGAN 1 3.6 19:04:19 10° S 19:08:28 46° W 19:12:39 10° NNW
NOSS 2-2 (C) 3.9 19:07:59 10° S 19:11:09 39° SE 19:11:09 39° SE
MOS 1 4.4 19:06:18 10° S 19:11:59 77° WSW 19:17:41 10° NNW
Thor Agena Rocket 4.0 19:12:21 38° ESE 19:12:21 38° ESE 19:17:07 10° SSE
S3M 4.2 19:09:58 10° SSE 19:15:43 44° E 19:17:05 38° ENE
Cosmos 1980 Rocket 2.1 19:11:11 10° SSW 19:16:50 79° ESE 19:19:35 32° NNE
Cosmos 1066 Rocket 4.1 19:12:38 10° S 19:18:03 57° E 19:19:40 41° NE
Cosmos 494 Rocket 3.9 19:14:14 10° N 19:19:28 61° ENE 19:23:05 20° SE
COSMO-SKYMED 1 4.0 19:22:23 10° N 19:26:22 36° WNW 19:30:19 10° SW
Cosmos 2297 Rocket 3.8 19:23:02 10° NW 19:28:08 35° WSW 19:33:12 10° SSW
SJ 16-02 3.8 19:27:45 10° WSW 19:30:55 19° WNW 19:34:06 10° NNW
Atlas Centaur 2 3.9 19:27:39 10° WSW 19:30:55 17° SSW 19:33:25 11° SSE
Cosmos 1244 Rocket 4.4 19:24:52 10° N 19:31:02 88° W 19:37:14 10° S
Gblst 52 Del rocket 4.3 19:26:28 10° NW 19:32:10 64° NE 19:33:02 57° ENE
Lacrosse 5 rocket 3.7 19:32:40 10° S 19:33:23 14° S 19:33:23 14° S
Cosmos 2344 3.9 19:33:37 10° S 19:40:34 42° ESE 19:40:34 42° ESE
RESURS DK-1 3.2 19:41:16 10° SSW 19:44:18 47° SW 19:44:18 47° SW
Cosmos 1553 Rocket 4.0 19:42:45 10° S 19:49:11 86° W 19:52:38 30° N
SL-08 R/B 4.3 19:46:35 10° N 19:52:52 89° E 19:59:04 10° S
ALOS 4.0 19:49:34 10° SSW 19:53:42 31° W 19:57:51 10° NW
SL-16 R/B 3.4 19:52:37 10° S 19:55:25 29° S 19:55:25 29° S
DELTA 2 R/B (1) 3.8 19:55:54 10° WNW 20:00:47 67° W 20:00:47 67° W
Cosmos 2322 Rocket 3.6 19:57:43 10° S 20:00:13 27° S 20:00:13 27° S
CENTAUR R/B 3.5 20:45:04 10° NW 20:51:51 59° WNW 20:51:51 59° WNW
